Home   Weather   Gaza   Past weeks
Flag for Palestinian Territories

Past Weather in Gaza, Gaza Strip, Palestinian Territories — Yesterday and Last 2 Weeks

Now
84 °F

Sunny.


Feels Like: 82 °F
Forecast: 80 / 69 °F
Wind: 2 mph from North

Location: Ben Gurion International Airport

Current Time: Oct 22, 2019 at 12:05:42 pm

Latest Report: Oct 22, 2019 at 11:20 am


Visibility: 10 mi

Pressure: 29.86 "Hg

Humidity: 33%

Dew Point: 52 °F

Location of GazaLocation

Past Weather in Gaza — Graph

°F

Gaza Temperature Yesterday

Maximum temperature yesterday: 82 °F (at 11:50 am)
Minimum temperature yesterday: 70 °F (at 1:50 am)
Average temperature yesterday: 76 °F

High & Low Weather Summary for the Past Weeks

 TemperatureHumidityPressure
High102 °F (Oct 15, 1:50 pm)94% (Oct 15, 3:50 am)30.07 "Hg (Oct 15, 3:50 am)
Low66 °F (Oct 22, 5:50 am)17% (Oct 15, 1:20 pm)29.83 "Hg (Oct 7, 3:50 pm)
Average78 °F70%29.96 "Hg
* Reported Oct 7 10:20 am — Oct 22 10:50 am, Gaza. Weather by CustomWeather, © 2019

Note: Actual official high and low records may vary slightly from our data, if they occured in-between our weather recording intervals... More about our weather records

Advertising

Gaza Weather History for the Previous 24 Hours

Scroll right to see more
 ConditionsComfort  
Time TempWeatherWind HumidityBarometerVisibility
10:50 am
Tue, Oct 22
81 °FSunny.3 mph37%29.86 "Hg10 mi
10:20 am79 °FSunny.2 mph42%29.86 "Hg10 mi
9:50 am75 °FSunny.3 mph47%29.86 "Hg10 mi
9:20 am75 °FSunny.2 mph57%29.86 "Hg10 mi
8:50 am72 °FSunny.2 mph61%29.86 "Hg10 mi
8:20 am70 °FSunny.2 mph64%29.86 "Hg10 mi
7:50 am68 °FSunny.1 mph69%29.86 "Hg10 mi
7:20 am66 °FSunny.2 mph73%29.86 "Hg10 mi
6:50 am68 °FSunny.2 mph69%29.86 "Hg10 mi
6:20 am66 °FClear.No wind73%29.86 "Hg10 mi
5:50 am66 °FClear.1 mph73%29.86 "Hg10 mi
5:20 am68 °FClear.1 mph73%29.86 "Hg10 mi
4:50 am70 °FClear.1 mph73%29.86 "Hg10 mi
4:20 am70 °FClear.2 mph69%29.86 "Hg10 mi
3:50 am70 °FClear.2 mph73%29.86 "Hg10 mi
3:20 am68 °FClear.2 mph78%29.86 "Hg10 mi
2:50 am70 °FClear.2 mph73%29.86 "Hg10 mi
2:20 am70 °FClear.2 mph73%29.86 "Hg10 mi
1:50 am70 °FClear.3 mph73%29.89 "Hg10 mi
1:20 am72 °FClear.1 mph69%29.89 "Hg10 mi
12:50 am70 °FClear.3 mph78%29.89 "Hg10 mi
12:20 am72 °FClear.2 mph78%29.89 "Hg10 mi
11:50 pm
Mon, Oct 21
72 °FClear.2 mph78%29.89 "Hg10 mi
11:20 pm73 °FClear.2 mph74%29.89 "Hg10 mi
10:50 pm73 °FClear.3 mph74%29.92 "Hg10 mi
10:20 pm73 °FClear.3 mph74%29.92 "Hg10 mi
9:50 pm73 °FClear.2 mph74%29.92 "Hg10 mi
9:20 pm75 °FClear.3 mph69%29.92 "Hg10 mi
8:50 pm77 °FClear.3 mph65%29.92 "Hg10 mi
8:20 pm77 °FClear.3 mph65%29.92 "Hg10 mi
7:50 pm77 °FClear.6 mph65%29.92 "Hg10 mi
7:20 pm77 °FClear.6 mph65%29.92 "Hg10 mi
6:50 pm77 °FClear.6 mph65%29.92 "Hg10 mi
6:20 pm79 °FClear.9 mph61%29.92 "Hg10 mi
5:50 pm79 °FPassing clouds.8 mph65%29.92 "HgN/A
5:20 pm81 °FPassing clouds.10 mph58%29.92 "HgN/A
4:50 pm81 °FPassing clouds.9 mph58%29.92 "HgN/A
4:20 pm81 °FPassing clouds.10 mph62%29.92 "HgN/A
3:50 pm81 °FPassing clouds.10 mph58%29.92 "HgN/A
3:20 pm81 °FPassing clouds.10 mph62%29.92 "HgN/A
2:50 pm82 °FPassing clouds.12 mph55%29.92 "HgN/A
2:20 pm82 °FPassing clouds.10 mph55%29.95 "HgN/A
1:50 pm82 °FPassing clouds.10 mph58%29.95 "HgN/A
1:20 pm82 °FPassing clouds.8 mph58%29.95 "HgN/A
12:50 pm82 °FScattered clouds.8 mph55%29.95 "HgN/A
12:20 pm82 °FScattered clouds.5 mph55%29.98 "HgN/A
Weather by CustomWeather, © 2019

See weather overview